Find Starlink 31812

NORAD ID: 59800 Int'l Des: 2024-093 Owner: SPXS Country: US Constellation: starlink operational
LEOCIRCULAR

Current View

Loading 3D Globe...

About Starlink 31812

Starlink 31812 (NORAD 59800) is a starlink constellation satellite (v2 mini) launched May 18, 2024 by SPXS of US. It operates in LEO, CIRCULAR orbit with a mass of 730.00 kg.

Upcoming Passes

Passes for default location (London). Set your location on the main map for personalized predictions.

Altitude History

Loading altitude history...

Two-Line Element Set

1 59800U 24093U 26236.33568720 -.00000159 00000-0 37349-5 0 9990
2 59800 43.0027 342.2095 0001040 271.7911 88.2822 15.27574477128402
Epoch: Aug 24, 2026 • Age: 19 hours

Current Status

Altitude 484.2 km
Apogee / Perigee N/A
Velocity 7.62 km/s
Sub-Earth Point -9.08°S, 47.86°W
Launch Date May 18, 2024
Age 2.2 years
Type internet

Technical Details

Classification Payload
Mass 730.00 kg
Dry Mass 700.00 kg
Total Mass 730.00 kg
Length 0.30 m
Diameter 4.10 m
Span 29.00 m
Shape Box + pan
Manufacturer SPXS
Bus Type Starlink V2M
Phase Status In Orbit
Owner/State SPXS/US

Most Searched